Terminal Aerodrome Forecast
Issued by NWS

Home | Current Version | Previous Version | Text Only | Print | Product List | Glossary On
Versions: 1 2 3 4 5 6 7 8 9 10 11 12 13 14 15 16 17 18
000
FTUS42 KGSP 310833 AAB
TAFAND
TAF AMD
KAND 310833Z 3109/0106 04003KT 6SM BR SCT012
     FM310930 04004KT 4SM BR OVC007
     FM311500 05005KT P6SM BKN025
     FM311700 06005KT P6SM BKN050
     FM010000 00000KT P6SM SCT060 BKN200=

USA.gov is the U.S. government's official web portal to all federal, state and local government web resources and services.